Weather in Koprivnica

Croatia     46˚09′51″N   16˚49′40″E
temp.,
°C
wind,
m/s
gust,
m/s
humid.,
%
clouds,
%
prec.,
mm/h
press.,
hPa
HPBL,
m
16 january, sat
sat1601:00−2˚nw358997 0.1 1023199
04:00−2˚nnw3109084 0.1 1022808
07:00−2˚nne3107292 0.1 1023793
10:00n695798 0.0 10231115
13:00n465899 0.1 10221148
16:00−1˚nne116693 0.1 102233
19:00−2˚sse237692 0.1 1022128
22:00−3˚sse3592100 0.2 1022327
17 january, sun
sun1701:00−3˚ssw358686 0.2 1021225
04:00−3˚wsw118366 0.0 101968
07:00−3˚wnw118479 0.0 101934
10:00−2˚nw235989 0.0 1019314
13:00nw234987 0.0 1018559
16:00−1˚nne12607 0.0 101824
19:00−3˚ne367446 0.0 1020246
22:00−3˚nne257499 0.0 1022229
18 january, mon
mon1801:00−4˚nne237176 0.0 1024170
04:00−4˚n11730 0.0 102428
07:00−4˚w117617 0.0 102621
10:00−2˚ssw247291 0.0 1026350
13:00sw356195 0.0 1025453
16:00−1˚ssw3566100 0.0 1025192
19:00−2˚sw237773 0.0 102664
22:00−2˚sw227637 0.0 102628
19 january, tue
tue1901:00−1˚sw227468 0.0 102726
04:00−2˚sw117696 0.0 102721
07:00−3˚ssw248548 0.0 102774
10:00ssw367467 0.0 1027235
13:00+3˚ssw585936 0.0 1025356
16:00+2˚ssw497429 0.0 1023270
19:00+1˚ssw5118364 0.0 1024241
22:00+1˚ssw51179100 0.0 1023326
20 january, wed
wed2001:00+2˚ssw6177097 0.0 1023636
04:00+2˚sw7187336 0.0 1022649
07:00+2˚ssw6197736 0.0 1021578
10:00+5˚sw7167162 0.0 1020904
13:00+8˚sw7176476 0.0 10191190
16:00+7˚sw71775100 0.0 1017781
19:00+6˚ssw8188492 0.0 1017644
22:00+7˚ssw9177958 0.0 1016801